Location: Brno
(49.2000°N, 16.6330°E)
Time: 20:15:54
(UTC+02:00)

CARTOSAT-1 - Visible Passes

Search period start: 23 July 2014 00:00
Search period end: 02 August 2014 00:00
Orbit: 617 x 619 km, 97.8° (Epoch: 23 July)

Date Brightness Start Highest point End Pass type
(mag) Time Alt. Az. Time Alt. Az. Time Alt. Az.
23 Jul 4.5 21:57:10 13° SE 22:00:33 35° ENE 22:04:29 10° N visible
23 Jul 5.1 23:34:18 17° SW 23:36:41 27° W 23:40:25 10° NW visible
24 Jul 4.0 22:14:09 17° SE 22:17:13 50° ENE 22:21:25 10° N visible
24 Jul 5.6 23:51:17 13° SW 23:53:35 19° W 23:56:44 10° NW visible
25 Jul 3.6 22:31:09 22° SSE 22:33:56 73° ENE 22:38:15 10° N visible
26 Jul 6.0 00:08:23 10° WSW 00:10:32 14° W 00:12:41 10° WNW visible
26 Jul 3.6 22:48:08 24° S 22:50:40 77° WSW 22:55:01 10° NNW visible
27 Jul 5.3 21:28:33 10° ESE 21:31:42 20° ENE 21:34:52 10° NNE visible
27 Jul 4.1 23:05:08 25° SSW 23:07:27 52° W 23:11:42 10° NNW visible
28 Jul 4.8 21:44:59 12° ESE 21:48:18 28° ENE 21:51:59 10° N visible
28 Jul 4.7 23:22:07 22° SSW 23:24:17 36° W 23:28:17 10° NNW visible
29 Jul 4.3 22:01:59 16° SE 22:04:57 38° ENE 22:08:58 10° N visible
29 Jul 5.3 23:39:07 18° SW 23:41:09 25° W 23:44:44 10° NW visible
30 Jul 3.8 22:18:59 22° SE 22:21:37 55° ENE 22:25:51 10° N visible
30 Jul 5.7 23:56:07 14° WSW 23:58:03 18° W 00:00:59 10° NW visible
31 Jul 3.5 22:35:59 27° SSE 22:38:20 81° ENE 22:42:40 10° NNW visible
01 Aug 6.1 00:13:16 10° WSW 00:15:00 12° W 00:16:44 10° WNW visible
01 Aug 5.5 21:16:51 10° E 21:19:30 16° ENE 21:22:09 10° NNE visible
01 Aug 3.7 22:52:59 29° S 22:55:05 70° WSW 22:59:25 10° NNW visible
